Keahole Point, HI

4:14 PM HST on September 25, 2017 (GMT -1000)
Kona International At Keahole

Weather History for PHKO - February, 2013

Change the Weather History Date:

Thursday, February 21, 2013

  Actual Average Record
Temperature  
Mean Temperature 74 °F -  
Max Temperature 80 °F 79 °F 89 °F (1981)
Min Temperature 68 °F 66 °F 62 °F (1993)
Cooling Degree Days 9    
Growing Degree Days 24 (Base 50)    
Moisture  
Dew Point 62 °F    
Average Humidity 63    
Maximum Humidity 70    
Minimum Humidity 56    
Precipitation  
Precipitation 0.00 in - - ()
Sea Level Pressure  
Sea Level Pressure 30.06 in    
Wind  
Wind Speed 6 mph (South)    
Max Wind Speed 14 mph    
Max Gust Speed -    
Visibility 10 miles    
Events      
Averages and records for this station are not official NWS values.
T = Trace of Precipitation, MM = Missing Value Source: NWS Daily Summary

Daily Weather History Graph

Daily Weather History Graph

Search for Another Location

Airport or City:

Trip Planner

Search our weather history database for the weather conditions in past years. The results will help you decide how hot, cold, wet, or windy it might be!

Date:

Astronomy

Feb. 21, 2013 Rise Set
Actual Time 6:49 AM HST 6:26 PM HST
Civil Twilight 6:26 AM HST 6:48 PM HST
Nautical Twilight 6:01 AM HST 7:14 PM HST
Astronomical Twilight 5:35 AM HST 7:40 PM HST
Moon 3:10 PM HST (2/21) 3:41 AM HST (2/21)
Length of Visible Light 12h 21m
Length of Day
11h 37m
Waxing Gibbous, 85% of the Moon is Illuminated
Feb 21
Waxing Gibbous
Feb 25
Full
Mar 4
Last Quarter
Mar 11
New
Mar 19
First Quarter

Hourly Weather History & Observations

Time (HST) Temp. Heat Index Dew Point Humidity Pressure Visibility Wind Dir Wind Speed Gust Speed Precip Events Conditions
1:53 AM 72.0 °F - 61.0 °F 68% 30.06 in 10.0 mi East 5.8 mph - N/A   Clear
3:53 AM 69.1 °F - 59.0 °F 70% 30.04 in 10.0 mi NNE 4.6 mph - N/A   Clear
4:53 AM 68.0 °F - 57.9 °F 70% 30.04 in 10.0 mi ENE 3.5 mph - N/A   Clear
6:53 AM 70.0 °F - 57.0 °F 63% 30.07 in 10.0 mi East 3.5 mph - N/A   Clear
7:53 AM 71.1 °F - 57.9 °F 63% 30.09 in 10.0 mi Calm Calm - N/A   Clear
8:53 AM 75.9 °F - 60.1 °F 58% 30.09 in 10.0 mi SW 3.5 mph - N/A   Clear
9:53 AM 77.0 °F - 60.1 °F 56% 30.10 in 10.0 mi West 5.8 mph - N/A   Clear
10:53 AM 78.1 °F - 63.0 °F 60% 30.08 in 10.0 mi WSW 5.8 mph - N/A   Clear
11:53 AM 80.1 °F 81.7 °F 64.0 °F 58% 30.07 in 10.0 mi WSW 10.4 mph - N/A   Clear
12:53 PM 79.0 °F - 64.0 °F 60% 30.04 in 10.0 mi WSW 9.2 mph - N/A   Clear
1:53 PM 80.1 °F 81.9 °F 64.9 °F 60% 30.02 in 10.0 mi WSW 9.2 mph - N/A   Clear
2:53 PM 78.1 °F - 64.9 °F 64% 30.01 in 10.0 mi WSW 9.2 mph - N/A   Clear
3:53 PM 77.0 °F - 64.0 °F 64% 30.02 in 10.0 mi SSW 8.1 mph - N/A   Scattered Clouds
4:53 PM 78.1 °F - 63.0 °F 60% 30.02 in 10.0 mi South 11.5 mph - N/A   Scattered Clouds
5:53 PM 77.0 °F - 63.0 °F 62% 30.05 in 10.0 mi South 13.8 mph - N/A   Mostly Cloudy
6:53 PM 75.9 °F - 62.1 °F 62% 30.05 in 10.0 mi SSE 8.1 mph - N/A   Clear
7:53 PM 75.9 °F - 63.0 °F 64% 30.07 in 10.0 mi SE 4.6 mph - N/A   Clear
8:53 PM 75.0 °F - 63.0 °F 66% 30.08 in 10.0 mi SSE 5.8 mph - N/A   Clear
9:53 PM 75.0 °F - 64.0 °F 69% 30.07 in 10.0 mi SSE 6.9 mph - N/A   Clear
10:53 PM 75.0 °F - 63.0 °F 66% 30.07 in 10.0 mi ESE 5.8 mph - N/A   Clear
11:53 PM 75.0 °F - 63.0 °F 66% 30.08 in 10.0 mi WSW 3.5 mph - N/A   Clear